Terminal Aerodrome Forecast
Issued by NWS

Home | Current Version | Previous Version | Text Only | Print | Product List | Glossary On
Versions: 1 2 3 4 5 6 7 8 9 10 11 12 13 14 15 16 17 18 19 20 21 22 23 24 25 26 27 28
000
FTUS41 KCTP 062114 AAA
TAFBFD
TAF AMD
KBFD 062114Z 0621/0718 04011G22KT P6SM -RA OVC050
     FM062200 02009G18KT P6SM OVC035
     FM070000 02006KT P6SM OVC025
     FM070600 VRB03KT 3SM -RADZ BR OVC005=

USA.gov is the U.S. government's official web portal to all federal, state and local government web resources and services.